Regional Weather Roundup
Issued by NWS

Home | Current Version | Previous Version | Graphics & Text | Print | Product List | Glossary On
Versions: 1 2 3 4 5 6 7 8 9 10 11 12 13 14 15 16 17 18 19 20 21 22 23 24 25 26 27 28 29 30 31 32 33 34 35 36 37 38 39 40 41 42 43 44 45 46 47 48 49 50
000
ASUS45 KPSR 040510
RWRAZ

ARIZONA HOURLY REGIONAL WEATHER ROUNDUP
NATIONAL WEATHER SERVICE PHOENIX AZ
1000 PM MST MON AUG 03 2015

NOTE: FAIR INDICATES FEW OR NO CLOUDS BELOW 12,000 FEET WITH NO
SIGNIFICANT WEATHER AND/OR OBSTRUCTIONS TO VISIBILITY.

AZZ001>003-036-040600-
NORTHWEST ARIZONA

CITY           SKY/WX    TMP DP  RH WIND       PRES   REMARKS
BULLHEAD CITY  CLEAR     97  39  13 CALM      29.73R
KINGMAN        CLEAR     83  30  14 S12       29.98R
$$

AZZ004>008-015-016-018-040600-
NORTH CENTRAL ARIZONA

CITY           SKY/WX    TMP DP  RH WIND       PRES   REMARKS
GRAND CANYON   CLEAR     60  41  49 SW6       30.24R
WILLIAMS       PTCLDY    70  43  37 SW8       30.33
PRESCOTT       CLEAR     74  45  35 SW8       30.13R
FLAGSTAFF      CLEAR     63  43  48 CALM      30.29R
PAGE           CLEAR     86  39  19 SW5       29.99R
$$

AZZ009>014-017-040600-
NORTHEAST ARIZONA

CITY           SKY/WX    TMP DP  RH WIND       PRES   REMARKS
WINSLOW        CLEAR     78  46  32 SW13      30.09R
SAINT JOHNS    CLEAR     73  47  39 SW8       30.15R
SHOW LOW       PTCLDY    68  45  42 S9        30.24
$$

AZZ023-040600-
GREATER PHOENIX AREA

CITY           SKY/WX    TMP DP  RH WIND       PRES   REMARKS
PHOENIX        PTCLDY    98  53  22 SW7       29.76R
BUCKEYE        CLEAR     93  48  21 W7        29.78R
LUKE AFB       CLEAR     96  54  24 SW9       29.77R
DEER VALLEY    CLEAR     98  48  18 SW7       29.80R
SCOTTSDALE     CLEAR     98  46  17 W3        29.82R
MESA-GATEWAY   CLEAR     97  46  17 NW3       29.82R
$$

AZZ027-028-040600-
SOUTHWEST MARICOPA COUNTY AND PINAL COUNTY

CITY           SKY/WX    TMP DP  RH WIND       PRES   REMARKS
CASA GRANDE    CLEAR     95  48  20 NW5       29.80S
GILA BEND      CLEAR     98  52  20 SW10      29.76R
$$

AZZ503-504-507>509-040600-
SOUTHEAST ARIZONA

CITY           SKY/WX    TMP DP  RH WIND       PRES   REMARKS
TUCSON         CLEAR     91  53  27 NW3       29.92S
DAVIS-MONTHAN  CLEAR     89  50  25 NW3       29.91R
NOGALES        CLEAR     75  62  64 CALM      30.05R
SIERRA VISTA   CLEAR     74  57  55 VRB1      30.10S
DOUGLAS        CLEAR     72  57  59 SE9       30.06S
SAFFORD        CLEAR     88  46  23 NW10      29.93R
$$

AZZ020-021-025-026-031-040600-
SOUTHWEST ARIZONA

CITY           SKY/WX    TMP DP  RH WIND       PRES   REMARKS
YUMA           PTCLDY    93  51  23 S9        29.73R
$$

CAZ031-033-041-043-047-048-061-040600-
SOUTHERN CALIFORNIA

CITY           SKY/WX    TMP DP  RH WIND       PRES   REMARKS
DOWNTOWN L.A.  CLEAR     72  61  68 CALM      29.87R
L.A. AIRPORT   PTCLDY    71  64  78 SW3       29.88R
SAN DIEGO      PTCLDY    72  64  76 NW5       29.91R
BURBANK        CLEAR     75  59  57 SE5       29.89R
ONTARIO        PTCLDY    76  60  57 SW7       29.90R
RIVERSIDE      PTCLDY    76  64  66 W6        29.91R
PALM SPRINGS   CLEAR     96  50  20 NW14      29.75R
EL CENTRO NAS  PTCLDY    94  38  14 SW9       29.72R
IMPERIAL       CLEAR     91  50  24 W3        29.70R
BLYTHE         CLEAR     99  48  17 S17       29.72R
NEEDLES        CLEAR     99  40  13 W12       29.74R
$$

NVZ020-UTZ003-040600-
SOUTHERN NEVADA-UTAH

CITY           SKY/WX    TMP DP  RH WIND       PRES   REMARKS
LAS VEGAS      PTCLDY    96  19   6 SW8       29.78R
SALT LAKE CITY PTCLDY    65  57  75 S9        30.06S
$$

NMZ009-TXZ055-040600-
NEW MEXICO-WEST TEXAS

CITY           SKY/WX    TMP DP  RH WIND       PRES   REMARKS
ALBUQUERQUE    PTCLDY    78  47  33 N3        30.13R
EL PASO        MOCLDY    78  61  55 S18       30.06R
$$


........................KEY........................
SKY/WX - SKY CONDITION/WEATHER
TMP    - TEMPERATURE IN FAHRENHEIT
DP     - DEW POINT IN FAHRENHEIT
RH     - RELATIVE HUMIDITY IN PERCENT
WIND   - DIRECTION AND SPEED IN MILES PER HOUR (MPH)
VRB    - VARIABLE WIND DIRECTION
PRES   - MEAN SEA LEVEL PRESSURE IN INCHES OF MERCURY
         F - FALLING PRESSURE   R - RISING PRESSURE
         S - STEADY PRESSURE
VSB    - VISIBILITY IN MILES
HX     - HEAT INDEX IN FAHRENHEIT
WCI    - WIND CHILL INDEX IN FAHRENHEIT
TC     - TEMPERATURE IN CELSIUS WHICH IS ALSO KNOWN AS
         TEMPERATURE IN CENTIGRADE
AFB    - AIR FORCE BASE
         LUKE AFB IS LUKE AIR FORCE BASE
         DAVIS-MONTHAN IS DAVIS-MONTHAN AIR FORCE BASE
NAS    - NAVAL AIR STATION
         EL CENTRO NAS IS EL CENTRO NAVAL AIR STATION
N/A    - NOT AVAILABLE




USA.gov is the U.S. government's official web portal to all federal, state and local government web resources and services.